Miscellaneous Local Product
Issued by NWS North Platte, NE

Home | Current Version | Previous Version | Graphics & Text | Print | Product List | Glossary On
Versions: 1 2 3 4 5 6 7 8 9 10 11 12 13 14 15 16 17 18 19 20 21 22 23 24 25 26 27 28 29 30 31 32 33 34 35 36 37 38 39 40 41 42 43 44 45 46 47 48 49 50
000
AXUS43 KLBF 202310
MISLBF


WESTERN AND NORTH CENTRAL NEBRASKA HOURLY WEATHER ROUNDUP
NATIONAL WEATHER SERVICE NORTH PLATTE NE
500 PM CST MON NOV 20 2017

NOTE: "FAIR" INDICATES FEW OR NO CLOUDS BELOW 12,000 FEET WITH NO
SIGNIFICANT WEATHER AND/OR OBSTRUCTIONS TO VISIBILITY.

NOTE: STATIONS NOT REPORTING VARIABLES SUCH AS SKY/WEATHER OR
PRESSURE ARE PROVIDED BY RAWS AND APRS NETWORKS AND ARE NOT UNDER
NATIONAL WEATHER SERVICE QUALITY CONTROL.

...OBSERVATIONS IN AND NEAR THE EASTERN PANHANDLE OF NEBRASKA...

CITY           SKY/WX    TMP DP  RH WIND       PRES   REMARKS
PINE RIDGE     CLOUDY    55  18  23 W7        29.68S
GORDON         FAIR      53  18  25 W9        29.69S
CHADRON        CLOUDY    50  21  32 SW9       29.73R
ALLIANCE       CLOUDY    55  21  26 NW12      29.74R
SIDNEY         CLOUDY    58  15  18 NW15G26   29.79R
CRESCENT LAKE    N/A     55  20  25 W8G16       N/A
$$

...OBSERVATIONS IN NORTHERN NEBRASKA AND FAR SOUTHERN SOUTH DAKOTA...

CITY           SKY/WX    TMP DP  RH WIND       PRES   REMARKS
WINNER         FAIR      58  20  22 NW13      29.61R
VALENTINE      CLEAR     60  19  20 NW12      29.65R
THEDFORD       CLOUDY    58  18  21 NW9       29.68R
AINSWORTH      CLOUDY    58  19  21 NW8       29.64R
O`NEILL        CLOUDY    53  25  33 NW6       29.62R
ORD            CLOUDY    57  19  22 NW7       29.61R
BROKEN BOW     CLOUDY    57  21  24 NW10      29.65R
VALENTINE NWR    N/A     60  15  17 NW10        N/A
HALSEY           N/A     61  16  17 NW8G21      N/A
BUTTE            N/A     56  25  30 W3          N/A
CHAMBERS         N/A     55  21  26 W7          N/A
EWING            N/A     52  25  35 N3          N/A
$$

...OBSERVATIONS IN SOUTHWEST NEBRASKA AND FAR NORTHEAST COLORADO...

CITY           SKY/WX    TMP DP  RH WIND       PRES   REMARKS
HOLYOKE        FAIR      63  18  17 NW18G24   29.76R
IMPERIAL       CLOUDY    63  16  16 NW17G30   29.73R
OGALLALA       CLOUDY    59  19  21 W12       29.73R
NORTH PLATTE   CLOUDY    61  20  20 NW15      29.68R
MCCOOK         CLOUDY    65  18  16 NW16      29.69R
LEXINGTON      CLOUDY    58  23  25 NW10      29.66R
STAPLETON        N/A     57  22  25 CALM        N/A
GOTHENBURG       N/A     62  18  18 W5          N/A
CALLAWAY         N/A     55  21  26 NW9         N/A
$$

...OBSERVATIONS IN CENTRAL LINCOLN COUNTY AREA...

CITY           SKY/WX    TMP DP  RH WIND       PRES   REMARKS
N.P. AIRPORT   CLOUDY    61  20  20 NW15      29.68R
N.P. DOWNTOWN    N/A     61  23  23 W7          N/A
N.P. SOUTHEAST   N/A     61  21  21 NW6G13      N/A
N.P. HILLCREST   N/A     60  21  22 W13         N/A
$$

...SOME OBSERVATIONS FROM AROUND THE REGION...

CITY           SKY/WX    TMP DP  RH WIND       PRES   REMARKS
DENVER         MOCLDY    60  12  15 E13       29.81R
LIMON          CLEAR     62  10  13 N7        29.82R
ASPEN          CLOUDY    38  18  44 NW5       30.13R WCI  34
LARAMIE        CLOUDY    44  11  26 SW14      29.94F
CASPER         CLOUDY    45  20  36 SW20      29.84S
CHEYENNE       CLOUDY    54  10  17 NW23G38   29.85R
SCOTTSBLUFF    CLOUDY    57  15  19 NW25G33   29.77R
GRAND ISLAND   CLEAR     56  27  32 W10       29.62R
OMAHA          CLOUDY    51  28  41 S9        29.62R
SIOUX FALLS    MOCLDY    48  28  46 SW5       29.55R
PIERRE         CLEAR     54  23  30 NW10      29.60R
RAPID CITY     CLEAR     55  22  27 N15       29.67R
BISMARCK       CLEAR     46  30  53 NW22G35   29.61R
KANSAS CITY    CLOUDY    58  28  32 S21G33    29.74S
HILL CITY      CLOUDY    68  13  12 W7        29.68R
WICHITA        CLOUDY    60  27  28 S20       29.76F
DODGE CITY     CLEAR     63  18  17 S13       29.75R
OKLAHOMA CITY  PTCLDY    60  26  27 S17       29.88S
DALLAS         MOCLDY    62  29  28 S14       29.98R
AMARILLO       CLEAR     59  18  20 SE10      29.83S
$$




USA.gov is the U.S. government's official web portal to all federal, state and local government web resources and services.